Preview of NWS' New Version of Forecast
This preview is not operational and should not be used for support decisions.

Regional Weather Roundup (RWR)

Issued by National Weather Service (NWS)

                            
000
ASUS44 KJAN 220410
RWRMS 

MISSISSIPPI HOURLY WEATHER ROUNDUP
NATIONAL WEATHER SERVICE JACKSON MS
1100 PM CDT SUN APR 21 2019

NOTE: "FAIR: INDICATES FEW OR NO CLOUDS BELOW 12,000 FEET WITH NO
SIGNIFICANT WEATHER AND/OR OBSTRUCTIONS TO VISIBILITY.

MSZ001>002-007>008-010>013-018>021-025>028-034>036-220500-
NORTHWEST MISSISSIPPI
  
CITY           SKY/WX    TMP DP  RH WIND       PRES   REMARKS
BATESVILLE       N/A     54  52  94 CALM      30.12S                  
CLARKSDALE     CLEAR     61  52  72 CALM      30.11S                  
CLEVELAND      FAIR      64  51  64 S6        30.10S                  
GREENWOOD      FAIR      57  53  86 NE3       30.12S                  
GREENVILLE     FAIR      63  50  62 S6        30.10R                  
OLIVE BRANCH   CLEAR     61  46  59 S3        30.10S HAZE             
OXFORD         FAIR      52  48  87 CALM      30.14S                  
TUNICA           N/A     55  50  82 SE6       30.11S                  
WINONA         FAIR      54  54  99 CALM      30.13S                  
$$

MSZ003>006-009-014>017-022>024-029>033-037>039-220500-
NORTHEAST MISSISSIPPI
  
CITY           SKY/WX    TMP DP  RH WIND       PRES   REMARKS
ABERDEEN       FAIR      52  52 100 CALM      30.15R                  
COLUMBUS AFB   NOT AVBL                                               
CORINTH        FAIR      57  50  77 SE3       30.12S                  
GOLDN TRIANGLE FAIR      60  51  72 S3        30.14S                  
TUPELO         FAIR      58  50  75 CALM      30.13R                  
$$

MSZ040-058-220500-
CENTRAL MISSISSIPPI
  
CITY           SKY/WX    TMP DP  RH WIND       PRES   REMARKS
JACKSON INTL   FAIR      60  49  66 S5        30.14R                  
JACKSON HAWKNS FAIR      60  52  74 CALM      30.14S                  
MADISON        FAIR      57  54  88 CALM      30.13S                  
MERIDIAN KEY   FAIR      56  52  86 CALM      30.16R                  
MERIDIAN NAS   FAIR      58  50  75 CALM      30.16R                  
RAYMOND        FAIR      55  55 100 CALM      30.13S                  
VICKSBURG VKS  CLEAR     61  52  72 SE6       30.13R                  
$$

MSZ059>079-220500-
SOUTH MISSISSIPPI
  
CITY           SKY/WX    TMP DP  RH WIND       PRES   REMARKS
HATTIESBURG    FAIR      54  44  69 CALM      30.18R                  
LAUREL         CLEAR     59  48  67 S3        30.17R                  
MCCOMB         FAIR      58  46  64 S3        30.16S                  
NATCHEZ        FAIR      58  49  72 SE6       30.14R                  
PINE BELT      FAIR      53  48  83 CALM      30.18R                  
$$

MSZ080>082-220500-
COASTAL MISSISSIPPI
  
CITY           SKY/WX    TMP DP  RH WIND       PRES   REMARKS
BILOXI         FAIR      61  48  61 SW6       30.17S                  
PASCAGOULA     FAIR      52  49  89 CALM      30.19R                  
GULFPORT       FAIR      56  50  80 CALM      30.17S                  
$$

LAZ007>009-015>016-023>026-220500-
NORTHEAST LOUISIANA
  
CITY           SKY/WX    TMP DP  RH WIND       PRES   REMARKS
BASTROP        FAIR      60  53  76 CALM      30.11S                  
TALLULAH/VBURG FAIR      63  54  72 CALM      30.12S                  
VIDALIA        FAIR      58  52  80 SE5       30.12S                  
$$